Location: Kikino
(54.4440°N, 112.0940°W)
Time: 19:42:59
(UTC+00:00)

A-11 Canister half - Pass Details

Date: 25 May 2024
Orbit: 1525 x 1683 km, 47.3° (Epoch: 12 June)

Event Time Altitude Azimuth Distance (km) Brightness Sun altitude
Rises 05:57:15 0° 249° (WSW) 4,697 11.6 -12.2°
Reaches altitude 10° 06:00:20 10° 245° (WSW) 3,729 11.0 -12.3°
Maximum altitude 06:09:26 56° 171° (S) 1,840 9.1 -12.8°
Drops below altitude 10° 06:18:51 10° 97° (E) 3,850 10.9 -13.2°
Sets 06:22:04 0° 94° (E) 4,858 11.4 -13.3°
